Reporte Solmaforo desde 01/03/2022 hasta 31/03/2022,,,,
C�digo,Fecha,IUV,,IUV Completo
2456342,02/03/2022 09:28:00,1,,1.3616
2456343,02/03/2022 09:29:00,1,,1.3568
2456344,02/03/2022 09:30:00,1,,1.3808
2456345,02/03/2022 09:31:00,1,,1.442
2456346,02/03/2022 09:32:00,2,,1.5084
2456347,02/03/2022 09:33:00,2,,1.574
2456348,02/03/2022 09:35:00,2,,1.674
2456349,02/03/2022 09:36:01,2,,1.7468
2456350,02/03/2022 09:37:00,2,,1.8284
2456351,02/03/2022 09:38:00,2,,1.9208
2456352,02/03/2022 09:39:00,2,,2.0304
2456353,02/03/2022 09:40:00,2,,2.1136
2456354,02/03/2022 09:42:00,2,,2.1704
2456355,02/03/2022 09:43:00,2,,2.164
2456356,02/03/2022 09:44:00,2,,2.1736
2456357,02/03/2022 09:45:00,2,,2.1864
2456358,02/03/2022 09:46:00,2,,2.1536
2456359,02/03/2022 09:47:00,2,,2.0472
2456360,02/03/2022 09:49:00,2,,1.8232
2456361,02/03/2022 09:50:00,2,,1.8024
2456362,02/03/2022 09:51:00,2,,1.8316
2456363,02/03/2022 09:52:00,2,,1.8504
2456364,02/03/2022 09:53:00,2,,1.8304
2456365,02/03/2022 09:54:00,2,,1.7704
2456366,02/03/2022 09:56:00,2,,1.6048
2456367,02/03/2022 09:57:00,2,,1.586
2456368,02/03/2022 09:58:00,2,,1.6296
2456369,02/03/2022 09:59:00,2,,1.7044
2456370,02/03/2022 10:00:00,2,,1.7688
2456371,02/03/2022 10:01:00,2,,1.834
2456372,02/03/2022 10:03:00,2,,1.938
2456373,02/03/2022 10:04:00,2,,1.9344
2456374,02/03/2022 10:05:00,2,,1.9304
2456375,02/03/2022 10:06:00,2,,1.9096
2456376,02/03/2022 10:07:00,2,,1.8344
2456377,02/03/2022 10:08:00,2,,1.7344
2456378,02/03/2022 10:10:01,2,,1.8688
2456379,02/03/2022 10:11:00,2,,1.9608
2456380,02/03/2022 10:12:00,2,,2.0368
2456381,02/03/2022 10:13:00,2,,2.08
2456382,02/03/2022 10:14:00,2,,2.03
2456383,02/03/2022 10:15:00,2,,2.0556
2456384,02/03/2022 10:17:00,2,,2.0444
2456385,02/03/2022 10:18:00,2,,2.056
2456386,02/03/2022 10:19:01,2,,1.9872
2456387,02/03/2022 10:20:00,2,,1.8916
2456388,02/03/2022 10:21:00,2,,1.9024
2456389,02/03/2022 10:22:00,2,,1.9196
2456390,02/03/2022 10:24:00,2,,1.6084
2456391,02/03/2022 10:25:00,1,,1.3596
2456392,02/03/2022 10:26:00,1,,1.1024
2456393,02/03/2022 10:27:00,1,,0.9128
2456394,02/03/2022 10:28:01,1,,0.8124
2456395,02/03/2022 10:29:00,1,,0.732
2456396,02/03/2022 10:31:00,0,,0.5
2456397,02/03/2022 10:32:00,0,,0.4264
2456398,02/03/2022 10:33:00,0,,0.4388
2456399,02/03/2022 10:34:00,1,,0.5552
2456400,02/03/2022 10:35:00,1,,0.6824
2456401,02/03/2022 10:36:00,1,,0.772
2456402,02/03/2022 10:38:00,1,,0.8132
2456403,02/03/2022 10:39:00,1,,0.8044
2456404,02/03/2022 10:40:00,1,,0.7868
2456405,02/03/2022 10:41:00,1,,0.7744
2456406,02/03/2022 10:42:00,1,,0.7328
2456407,02/03/2022 10:43:00,1,,0.6836
2456408,02/03/2022 10:45:00,1,,0.6732
2456409,02/03/2022 10:46:01,1,,0.6984
2456410,02/03/2022 10:47:00,1,,0.7516
2456411,02/03/2022 10:48:00,1,,0.8464
2456412,02/03/2022 10:49:00,1,,0.862
2456413,02/03/2022 10:50:00,1,,0.8636
2456414,02/03/2022 10:51:00,1,,0.8636
2456415,02/03/2022 10:52:00,1,,0.9624
2456416,02/03/2022 10:53:00,1,,1.116
2456417,02/03/2022 10:54:00,1,,1.2112
2456418,02/03/2022 10:55:00,1,,1.2536
2456419,02/03/2022 10:56:00,1,,1.3224
2456420,02/03/2022 10:57:00,1,,1.448
2456421,02/03/2022 10:58:00,2,,1.5756
2456422,02/03/2022 10:59:00,2,,1.7072
2456423,02/03/2022 11:00:00,2,,1.932
2456424,02/03/2022 11:01:00,2,,2.104
2456425,02/03/2022 11:02:01,2,,2.2288
2456426,02/03/2022 11:03:00,2,,2.3324
2456427,02/03/2022 11:04:00,2,,2.4
2456428,02/03/2022 11:05:00,2,,2.438
2456429,02/03/2022 11:06:00,2,,2.4392
2456430,02/03/2022 11:07:00,2,,2.4064
2456431,02/03/2022 11:08:00,2,,2.41
2456432,02/03/2022 11:09:00,2,,2.444
2456433,02/03/2022 11:10:00,2,,2.4584
2456434,02/03/2022 11:11:00,2,,2.4668
2456435,02/03/2022 11:12:00,3,,2.5004
2456436,02/03/2022 11:13:00,3,,2.5264
2456437,02/03/2022 11:14:00,3,,2.5292
2456438,02/03/2022 11:15:00,2,,2.4932
2456439,02/03/2022 11:16:00,2,,2.4584
2456440,02/03/2022 11:17:00,2,,2.4404
2456441,02/03/2022 11:18:00,2,,2.4464
2456442,02/03/2022 11:19:00,2,,2.486
2456443,02/03/2022 11:20:00,3,,2.54
2456444,02/03/2022 11:21:00,3,,2.648
2456445,02/03/2022 11:22:00,3,,2.7804
2456446,02/03/2022 11:23:00,3,,2.9152
2456447,02/03/2022 11:24:00,3,,3.0144
2456448,02/03/2022 11:25:00,3,,3.0576
2456449,02/03/2022 11:26:00,3,,3.0704
2456450,02/03/2022 11:27:00,3,,3.0568
2456451,02/03/2022 11:28:00,3,,3.0344
2456452,02/03/2022 11:29:01,3,,3.0064
2456453,02/03/2022 11:30:00,3,,2.974
2456454,02/03/2022 11:31:00,3,,2.9632
2456455,02/03/2022 11:32:00,3,,2.962
2456456,02/03/2022 11:33:00,3,,2.9732
2456457,02/03/2022 11:34:00,3,,2.9904
2456458,02/03/2022 11:35:00,3,,3.0068
2456459,02/03/2022 11:36:01,3,,3.0112
2456460,02/03/2022 11:37:00,3,,3
2456461,02/03/2022 11:38:00,3,,2.9912
2456462,02/03/2022 11:39:00,3,,2.946
2456463,02/03/2022 11:40:00,3,,2.892
2456464,02/03/2022 11:41:00,3,,2.8132
2456465,02/03/2022 11:42:00,3,,2.7892
2456466,02/03/2022 11:43:00,3,,2.7988
2456467,02/03/2022 11:44:00,3,,2.814
2456468,02/03/2022 11:45:00,3,,2.8268
2456469,02/03/2022 11:46:00,3,,2.852
2456470,02/03/2022 11:47:00,3,,2.8676
2456471,02/03/2022 11:48:00,3,,2.8776
2456472,02/03/2022 11:49:00,3,,2.8792
2456473,02/03/2022 11:50:00,3,,2.882
2456474,02/03/2022 11:51:00,3,,2.9032
2456475,02/03/2022 11:52:00,3,,2.9476
2456476,02/03/2022 11:53:00,3,,3.0136
2456477,02/03/2022 11:54:00,3,,3.1288
2456478,02/03/2022 11:55:00,3,,3.2836
2456479,02/03/2022 11:56:00,4,,3.5036
2456480,02/03/2022 11:57:00,4,,4.0176
2456481,02/03/2022 11:58:00,4,,4.2168
2456482,02/03/2022 11:59:00,4,,4.3636
2456483,02/03/2022 12:00:00,4,,4.2396
2456484,02/03/2022 12:01:00,4,,3.908
2456485,02/03/2022 12:02:00,4,,3.5776
2456486,02/03/2022 12:03:01,3,,3.3808
2456487,02/03/2022 12:04:00,3,,3.2196
2456488,02/03/2022 12:05:00,3,,3.0784
2456489,02/03/2022 12:06:00,3,,3.008
2456490,02/03/2022 12:07:00,3,,2.9844
2456491,02/03/2022 12:08:00,3,,2.9796
2456492,02/03/2022 12:09:00,3,,3.0056
2456493,02/03/2022 12:10:00,3,,3.0224
2456494,02/03/2022 12:11:00,3,,3.0068
2456495,02/03/2022 12:12:00,3,,2.9376
2456496,02/03/2022 12:13:00,3,,2.8908
2456497,02/03/2022 12:14:00,3,,2.9096
2456498,02/03/2022 12:15:00,3,,2.8504
2456499,02/03/2022 12:16:00,3,,2.848
2456500,02/03/2022 12:17:00,3,,2.9644
2456501,02/03/2022 12:18:00,3,,3.0272
2456502,02/03/2022 12:19:00,3,,3.1364
2456503,02/03/2022 12:20:00,3,,3.3212
2456504,02/03/2022 12:21:00,4,,3.5368
2456505,02/03/2022 12:22:00,4,,3.838
2456506,02/03/2022 12:23:00,4,,4.136
2456507,02/03/2022 12:24:00,5,,4.5864
2456508,02/03/2022 12:25:00,5,,4.9112
2456509,02/03/2022 12:26:00,5,,5.0252
2456510,02/03/2022 12:27:00,6,,5.6524
2456511,02/03/2022 12:28:00,6,,5.9808
2456512,02/03/2022 12:29:00,5,,5.29
2456513,02/03/2022 12:30:01,5,,5.104
2456514,02/03/2022 12:31:00,5,,5.0148
2456515,02/03/2022 12:32:00,5,,4.8208
2456516,02/03/2022 12:33:00,5,,4.6976
2456517,02/03/2022 12:34:00,5,,4.5828
2456518,02/03/2022 12:35:00,5,,4.6356
2456519,02/03/2022 12:36:00,5,,4.5468
2456520,02/03/2022 12:37:00,4,,4.3472
2456521,02/03/2022 12:38:00,4,,4.1548
2456522,02/03/2022 12:39:00,4,,4.0484
2456523,02/03/2022 12:40:00,4,,3.9008
2456524,02/03/2022 12:41:00,4,,3.8828
2456525,02/03/2022 12:42:00,4,,3.8132
2456526,02/03/2022 12:43:00,4,,3.8352
2456527,02/03/2022 12:44:00,4,,3.9844
2456528,02/03/2022 12:45:00,4,,3.9216
2456529,02/03/2022 12:46:01,4,,3.9464
2456530,02/03/2022 12:47:00,4,,4.1132
2456531,02/03/2022 12:48:00,4,,4.284
2456532,02/03/2022 12:49:00,5,,4.5688
2456533,02/03/2022 12:50:00,5,,4.6624
2456534,02/03/2022 12:51:00,5,,4.78
2456535,02/03/2022 12:52:00,5,,5.4132
2456536,02/03/2022 12:53:00,6,,5.5936
2456537,02/03/2022 12:54:00,6,,6.1068
2456538,02/03/2022 12:55:00,7,,6.6908
2456539,02/03/2022 12:56:00,6,,5.8736
2456540,02/03/2022 12:57:00,6,,6.1824
2456541,02/03/2022 12:58:00,6,,5.864
2456542,02/03/2022 12:59:00,7,,7.1652
2456543,02/03/2022 13:00:00,7,,6.9316
2456544,02/03/2022 13:01:00,8,,8.4888
2456545,02/03/2022 13:02:00,9,,8.7304
2456546,02/03/2022 13:03:00,10,,9.6608
2456547,02/03/2022 13:04:00,8,,7.5484
2456548,02/03/2022 13:05:00,6,,6.4508
2456549,02/03/2022 13:06:00,9,,8.6168
2456550,02/03/2022 13:07:00,6,,5.9304
2456551,02/03/2022 13:08:00,6,,6.334
2456552,02/03/2022 13:09:00,7,,6.718
2456553,02/03/2022 13:10:00,5,,5.0752
2456554,02/03/2022 13:11:00,7,,7.19
2456555,02/03/2022 13:12:00,8,,7.6116
2456556,02/03/2022 13:13:00,7,,7.2904
2456557,02/03/2022 13:14:00,6,,5.7436
2456558,02/03/2022 13:15:00,4,,3.6876
2456559,02/03/2022 13:16:00,3,,2.8368
2456560,02/03/2022 13:17:00,3,,2.794
2456561,02/03/2022 13:18:00,3,,2.9012
2456562,02/03/2022 13:19:00,3,,2.882
2456563,02/03/2022 13:20:00,5,,4.8764
2456564,02/03/2022 13:21:00,6,,6.3112
2456565,02/03/2022 13:22:00,5,,5.3648
2456566,02/03/2022 13:23:00,6,,6.4796
2456567,02/03/2022 13:24:00,6,,6.2364
2456568,02/03/2022 13:25:00,7,,6.7688
2456569,02/03/2022 13:26:00,6,,6.1252
2456570,02/03/2022 13:27:00,6,,5.7412
2456571,02/03/2022 13:28:00,6,,6.3288
2456572,02/03/2022 13:29:00,7,,6.9288
2456573,02/03/2022 13:30:00,7,,7.414
2456574,02/03/2022 13:31:01,8,,7.8184
2456575,02/03/2022 13:32:00,8,,7.5836
2456576,02/03/2022 13:33:00,7,,7.4124
2456577,02/03/2022 13:34:00,7,,7.3848
2456578,02/03/2022 13:35:00,7,,7.2976
2456579,02/03/2022 13:36:00,7,,7.1028
2456580,02/03/2022 13:37:00,7,,7.022
2456581,02/03/2022 13:38:00,7,,7.1456
2456582,02/03/2022 13:39:00,7,,7.0208
2456583,02/03/2022 13:40:01,6,,6.2068
2456584,02/03/2022 13:41:00,5,,5.4968
2456585,02/03/2022 13:42:00,6,,5.6864
2456586,02/03/2022 13:43:00,6,,6.3852
2456587,02/03/2022 13:44:00,7,,6.948
2456588,02/03/2022 13:45:00,7,,7.202
2456589,02/03/2022 13:46:00,7,,7.2604
2456590,02/03/2022 13:47:00,7,,7.2632
2456591,02/03/2022 13:48:00,7,,7.1392
2456592,02/03/2022 13:49:00,7,,6.772
2456593,02/03/2022 13:50:00,6,,6.2432
2456594,02/03/2022 13:51:00,6,,6.0096
2456595,02/03/2022 13:52:00,6,,6.3956
2456596,02/03/2022 13:53:00,7,,7.2156
2456597,02/03/2022 13:54:00,8,,7.7008
2456598,02/03/2022 13:55:00,8,,7.6756
2456599,02/03/2022 13:56:00,8,,7.5628
2456600,02/03/2022 13:57:00,8,,7.5644
2456601,02/03/2022 13:58:00,7,,6.8088
2456602,02/03/2022 13:59:00,6,,5.9232
2456603,02/03/2022 14:00:00,5,,5.1472
2456604,02/03/2022 14:01:00,6,,5.5516
2456605,02/03/2022 14:02:00,6,,6.3952
2456606,02/03/2022 14:03:00,7,,7.2488
2456607,02/03/2022 14:04:00,7,,7.4488
2456608,02/03/2022 14:05:00,7,,7.1656
2456609,02/03/2022 14:06:00,7,,7.2764
2456610,02/03/2022 14:07:01,7,,7.0872
2456611,02/03/2022 14:08:00,6,,5.9388
2456612,02/03/2022 14:09:00,5,,4.9692
2456613,02/03/2022 14:10:00,5,,4.7404
2456614,02/03/2022 14:11:00,5,,5.112
2456615,02/03/2022 14:12:00,5,,5.0788
2456616,02/03/2022 14:13:00,5,,5.4292
2456617,02/03/2022 14:14:00,6,,5.5332
2456618,02/03/2022 14:15:00,6,,5.8424
2456619,02/03/2022 14:16:01,5,,5.3076
2456620,02/03/2022 14:17:00,5,,5.4216
2456621,02/03/2022 14:18:00,5,,4.7744
2456622,02/03/2022 14:19:00,5,,4.6148
2456623,02/03/2022 14:20:00,5,,4.656
2456624,02/03/2022 14:21:00,5,,4.6556
2456625,02/03/2022 14:22:00,4,,4.406
2456626,02/03/2022 14:23:00,4,,4.1308
2456627,02/03/2022 14:24:00,4,,4.0248
2456628,02/03/2022 14:25:00,4,,4.3616
2456629,02/03/2022 14:26:00,5,,4.6316
2456630,02/03/2022 14:27:00,4,,4.2316
2456631,02/03/2022 14:28:00,4,,3.8288
2456632,02/03/2022 14:29:00,3,,3.4016
2456633,02/03/2022 14:30:00,3,,3.3256
2456634,02/03/2022 14:31:00,4,,3.5288
2456635,02/03/2022 14:32:00,4,,3.7024
2456636,02/03/2022 14:33:00,4,,3.5248
2456637,02/03/2022 14:34:00,3,,3.334
2456638,02/03/2022 14:35:00,3,,3.3968
2456639,02/03/2022 14:36:00,3,,3.4992
2456640,02/03/2022 14:37:00,5,,4.6732
2456641,02/03/2022 14:38:00,5,,4.882
2456642,02/03/2022 14:39:00,6,,5.6404
2456643,02/03/2022 14:41:00,5,,5.1888
2456644,02/03/2022 14:42:00,5,,4.9616
2456645,02/03/2022 14:43:00,5,,4.5936
2456646,02/03/2022 14:44:00,4,,3.712
2456647,02/03/2022 14:45:00,3,,3.4324
2456648,02/03/2022 14:46:00,3,,3.3344
2456649,02/03/2022 14:48:01,3,,3.44
2456650,02/03/2022 14:49:00,4,,3.6352
2456651,02/03/2022 14:50:00,3,,3.4104
2456652,02/03/2022 14:51:00,3,,3.4016
2456653,02/03/2022 14:52:00,3,,3.4172
2456654,02/03/2022 14:53:00,3,,3.4752
2456655,02/03/2022 14:55:00,3,,3.35
2456656,02/03/2022 14:56:00,3,,3.2984
2456657,02/03/2022 14:57:00,4,,3.6896
2456658,02/03/2022 14:58:00,4,,4.228
2456659,02/03/2022 14:59:00,4,,3.784
2456660,02/03/2022 15:00:00,4,,3.724
2456661,02/03/2022 15:02:00,5,,4.7184
2456662,02/03/2022 15:03:00,4,,3.568
2456663,02/03/2022 15:04:00,5,,4.662
2456664,02/03/2022 15:05:00,3,,3.4668
2456665,02/03/2022 15:06:00,4,,3.674
2456666,02/03/2022 15:07:00,4,,3.5616
2456667,02/03/2022 15:09:00,3,,2.9356
2456668,02/03/2022 15:10:00,3,,2.6492
2456669,02/03/2022 15:11:00,3,,2.8264
2456670,02/03/2022 15:12:00,3,,2.7636
2456671,02/03/2022 15:13:00,3,,2.9044
2456672,02/03/2022 15:14:00,3,,3.0724
2456673,02/03/2022 15:16:00,3,,3.3992
2456674,02/03/2022 15:17:00,3,,2.732
2456675,02/03/2022 15:18:00,3,,2.7336
2456676,02/03/2022 15:19:00,3,,2.788
2456677,02/03/2022 15:20:00,3,,2.8396
2456678,02/03/2022 15:21:00,3,,2.9556
2456679,02/03/2022 15:23:00,4,,3.5544
2456680,02/03/2022 15:24:00,3,,3.1396
2456681,02/03/2022 15:25:00,3,,2.9892
2456682,02/03/2022 15:26:01,3,,2.9244
2456683,02/03/2022 15:27:00,3,,2.8932
2456684,02/03/2022 15:28:00,3,,2.8596
2456685,02/03/2022 15:30:00,3,,2.7124
2456686,02/03/2022 15:31:00,3,,2.6232
2456687,02/03/2022 15:32:00,3,,2.5208
2456688,02/03/2022 15:33:00,2,,2.4092
2456689,02/03/2022 15:34:00,2,,2.2868
2456690,02/03/2022 15:35:00,2,,2.146
2456691,02/03/2022 15:37:00,2,,1.92
2456692,02/03/2022 15:38:00,2,,1.8428
2456693,02/03/2022 15:39:00,2,,1.7768
2456694,02/03/2022 15:40:00,2,,1.7268
2456695,02/03/2022 15:41:00,2,,1.6912
2456696,02/03/2022 15:42:00,2,,1.666
2456697,02/03/2022 15:44:00,2,,1.6528
2456698,02/03/2022 15:45:00,2,,1.644
2456699,02/03/2022 15:46:00,2,,1.6328
2456700,02/03/2022 15:47:00,2,,1.6032
2456701,02/03/2022 15:48:00,2,,1.5732
2456702,02/03/2022 15:49:00,2,,1.5416
2456703,02/03/2022 15:51:00,1,,1.4504
2456704,02/03/2022 15:52:00,1,,1.3924
2456705,02/03/2022 15:53:00,1,,1.342
2456706,02/03/2022 15:54:00,1,,1.29
2456707,02/03/2022 15:55:00,1,,1.2496
2456708,02/03/2022 15:56:00,1,,1.2248
2456709,02/03/2022 15:58:00,1,,1.2344
2456710,02/03/2022 15:59:00,1,,1.2664
2456711,02/03/2022 16:00:00,1,,1.294
2456712,02/03/2022 16:01:00,1,,1.3176
2456713,02/03/2022 16:02:00,1,,1.3424
2456714,02/03/2022 16:03:00,1,,1.376
2456715,02/03/2022 16:05:00,1,,1.4324
2456716,02/03/2022 16:06:00,1,,1.4472
2456717,02/03/2022 16:07:00,1,,1.4432
2456718,02/03/2022 16:08:00,1,,1.4232
2456719,02/03/2022 16:09:00,1,,1.392
2456720,02/03/2022 16:10:00,1,,1.3824
2456721,02/03/2022 16:12:00,1,,1.3876
2456722,02/03/2022 16:13:00,1,,1.3912
2456723,02/03/2022 16:14:00,1,,1.4228
2456724,02/03/2022 16:15:00,1,,1.4348
2456725,02/03/2022 16:16:00,1,,1.4388
2456726,02/03/2022 16:17:00,1,,1.4396
2456727,02/03/2022 16:19:00,1,,1.4372
2456728,02/03/2022 16:20:00,1,,1.4196
2456729,02/03/2022 16:21:00,1,,1.3932
2456730,02/03/2022 16:22:00,1,,1.3632
2456731,02/03/2022 16:23:00,1,,1.336
2456732,02/03/2022 16:24:00,1,,1.3104
2456733,02/03/2022 16:26:00,1,,1.2544
2456734,02/03/2022 16:27:01,1,,1.2148
2456735,02/03/2022 16:28:00,1,,1.1648
2456736,02/03/2022 16:29:00,1,,1.1104
2456737,02/03/2022 16:30:00,1,,1.0484
2456738,02/03/2022 16:31:00,1,,0.9828
2456739,02/03/2022 16:33:00,1,,0.8512
2456740,02/03/2022 16:34:00,1,,0.794
2456741,02/03/2022 16:35:00,1,,0.7404
2456742,02/03/2022 16:36:01,1,,0.702
2456743,02/03/2022 16:37:00,1,,0.6736
2456744,02/03/2022 16:38:00,1,,0.6644
2456745,02/03/2022 16:40:00,1,,0.65
2456746,02/03/2022 16:41:00,1,,0.6484
2456747,02/03/2022 16:42:00,1,,0.6496
2456748,02/03/2022 16:43:01,1,,0.6484
2456749,02/03/2022 16:44:00,1,,0.6496
2456750,02/03/2022 16:45:01,1,,0.65
2456751,02/03/2022 16:46:00,1,,0.6448
2456752,02/03/2022 16:47:00,1,,0.6408
2456753,02/03/2022 16:48:00,1,,0.6368
2456754,02/03/2022 16:49:00,1,,0.6352
2456755,02/03/2022 16:50:00,1,,0.6392
2456756,02/03/2022 16:51:00,1,,0.6468
2456757,02/03/2022 16:52:00,1,,0.656
2456758,02/03/2022 16:53:00,1,,0.6692
2456759,02/03/2022 16:54:00,1,,0.686
2456760,02/03/2022 16:55:00,1,,0.706
2456761,02/03/2022 16:56:00,1,,0.7232
2456762,02/03/2022 16:57:00,1,,0.7412
2456763,02/03/2022 16:58:00,1,,0.7624
2456764,02/03/2022 16:59:00,1,,0.7852
2456765,02/03/2022 17:00:00,1,,0.8096
2456766,02/03/2022 17:01:00,1,,0.836
2456767,02/03/2022 17:02:00,1,,0.8596
2456768,02/03/2022 17:03:00,1,,0.8752
2456769,02/03/2022 17:04:00,1,,0.8792
2456770,02/03/2022 17:05:00,1,,0.882
2456771,02/03/2022 17:06:00,1,,0.902
2456772,02/03/2022 17:07:00,1,,0.932
2456773,02/03/2022 17:08:00,1,,0.9596
2456774,02/03/2022 17:09:00,1,,0.9784
2456775,02/03/2022 17:10:00,1,,1.0084
2456776,02/03/2022 17:11:00,1,,1.036
2456777,02/03/2022 17:12:00,1,,1.046
2456778,02/03/2022 17:13:00,1,,1.0772
2456779,02/03/2022 17:14:00,1,,1.2044
2456780,02/03/2022 17:15:00,1,,1.2916
2456781,02/03/2022 17:16:00,1,,1.266
2456782,02/03/2022 17:17:00,1,,1.1612
2456783,02/03/2022 17:18:00,1,,0.998
2456784,02/03/2022 17:19:00,1,,0.9936
2456785,02/03/2022 17:20:00,1,,1.0072
2456786,02/03/2022 17:21:00,1,,0.8928
2456787,02/03/2022 17:22:00,1,,0.8072
2456788,02/03/2022 17:23:00,1,,0.7608
2456789,02/03/2022 17:24:00,1,,0.7332
2456790,02/03/2022 17:25:00,1,,0.7044
2456791,02/03/2022 17:26:00,1,,0.6736
2456792,02/03/2022 17:27:00,1,,0.6408
2456793,02/03/2022 17:28:00,1,,0.6104
2456794,02/03/2022 17:29:00,1,,0.5868
2456795,02/03/2022 17:30:00,1,,0.5692
2456796,02/03/2022 17:31:00,1,,0.558
2456797,02/03/2022 17:32:00,1,,0.5488
2456798,02/03/2022 17:33:00,1,,0.5404
2456799,02/03/2022 17:34:00,1,,0.5312
2456800,02/03/2022 17:35:00,1,,0.5188
2456801,02/03/2022 17:36:00,1,,0.5032
2456802,02/03/2022 17:37:00,0,,0.4852
2456803,02/03/2022 17:38:00,0,,0.4616
2456804,02/03/2022 17:39:00,0,,0.4352
2456805,02/03/2022 17:40:00,0,,0.4072
2456806,02/03/2022 17:41:00,0,,0.3836
2456807,02/03/2022 17:42:00,0,,0.3656
2456808,02/03/2022 17:43:00,0,,0.352
2456809,02/03/2022 17:44:00,0,,0.3416
2456810,02/03/2022 17:45:00,0,,0.3304
2456811,02/03/2022 17:46:00,0,,0.3156
2456812,02/03/2022 17:47:00,0,,0.2992
2456813,02/03/2022 17:48:00,0,,0.282
2456814,02/03/2022 17:49:00,0,,0.2628
2456815,02/03/2022 17:50:00,0,,0.244
2456816,02/03/2022 17:51:00,0,,0.2296
2456817,02/03/2022 17:52:00,0,,0.2216
2456818,02/03/2022 17:53:00,0,,0.2188
2456819,02/03/2022 17:54:00,0,,0.2188
2456820,02/03/2022 17:55:00,0,,0.218
2456821,02/03/2022 17:56:00,0,,0.2168
2456822,02/03/2022 17:57:00,0,,0.2172
2456823,02/03/2022 17:58:00,0,,0.2172
2456824,02/03/2022 17:59:00,0,,0.2164
2456825,02/03/2022 18:00:00,0,,0.2164
2456826,02/03/2022 18:01:00,0,,0.216
2456827,02/03/2022 18:02:00,0,,0.2136
2456828,02/03/2022 18:03:00,0,,0.2084
2456829,02/03/2022 18:04:00,0,,0.2056
2456830,02/03/2022 18:05:00,0,,0.204
2456831,02/03/2022 18:06:00,0,,0.2016
2456832,02/03/2022 18:07:00,0,,0.198
2456833,02/03/2022 18:08:00,0,,0.1932
2456834,02/03/2022 18:09:00,0,,0.1852
2456835,02/03/2022 18:10:00,0,,0.1756
2456836,02/03/2022 18:11:00,0,,0.164
2456837,02/03/2022 18:12:00,0,,0.152
2456838,02/03/2022 18:13:00,0,,0.1416
2456839,02/03/2022 18:14:00,0,,0.1324
2456840,02/03/2022 18:15:00,0,,0.1236
2456841,02/03/2022 18:16:00,0,,0.1148
2456842,02/03/2022 18:17:00,0,,0.1056
2456843,02/03/2022 18:18:00,0,,0.0924
2456844,02/03/2022 18:19:00,0,,0.0796
2456845,02/03/2022 18:20:00,0,,0.0696
2456846,02/03/2022 18:21:00,0,,0.0616
2456847,02/03/2022 18:22:00,0,,0.0544
2456848,02/03/2022 18:23:00,0,,0.0472
2456849,02/03/2022 18:24:00,0,,0.0412
2456850,02/03/2022 18:25:00,0,,0.0368
2456851,02/03/2022 18:26:00,0,,0.0332
2456852,02/03/2022 18:27:00,0,,0.0296
2456853,02/03/2022 18:28:00,0,,0.026
2456854,02/03/2022 18:29:00,0,,0.0224
2456855,02/03/2022 18:30:00,0,,0.0188
2456856,02/03/2022 18:31:00,0,,0.016
2456857,02/03/2022 18:32:00,0,,0.0132
2456858,02/03/2022 18:33:00,0,,0.0112
2456859,02/03/2022 18:34:00,0,,0.0096
2456860,02/03/2022 18:35:00,0,,0.0084
2456861,02/03/2022 18:36:00,0,,0.0072
2456862,02/03/2022 18:37:00,0,,0.006
2456863,02/03/2022 18:38:00,0,,0.0052
2456864,02/03/2022 18:39:00,0,,0.0044
2456865,02/03/2022 18:40:00,0,,0.0036
2456866,02/03/2022 18:41:00,0,,0.0032
2456867,02/03/2022 18:42:00,0,,0.0024
2456868,02/03/2022 18:43:00,0,,0.002
2456869,02/03/2022 18:44:00,0,,0.0016
2456870,02/03/2022 18:45:00,0,,0.0008
2456871,02/03/2022 18:46:00,0,,0.0008
2456872,02/03/2022 18:47:00,0,,0.0004
2456873,02/03/2022 18:48:00,0,,0.0004
2456874,02/03/2022 18:49:00,0,,0
2456875,02/03/2022 18:50:00,0,,0
2456876,02/03/2022 18:51:00,0,,0
2456877,02/03/2022 18:52:00,0,,0
2456878,02/03/2022 18:53:00,0,,0
2456879,02/03/2022 18:54:00,0,,0
2456880,02/03/2022 18:55:00,0,,0
2456881,02/03/2022 18:56:00,0,,0
2456882,02/03/2022 18:57:00,0,,0
2456883,02/03/2022 18:58:00,0,,0
2456884,02/03/2022 18:59:00,0,,0
2456885,03/03/2022 05:01:00,0,,0
2456886,03/03/2022 05:02:00,0,,0
2456887,03/03/2022 05:03:00,0,,0
2456888,03/03/2022 05:04:00,0,,0
2456889,03/03/2022 05:05:00,0,,0
2456890,03/03/2022 05:06:00,0,,0
2456891,03/03/2022 05:08:00,0,,0
2456892,03/03/2022 05:09:00,0,,0
2456893,03/03/2022 05:10:00,0,,0
2456894,03/03/2022 05:11:00,0,,0
2456895,03/03/2022 05:12:00,0,,0
2456896,03/03/2022 05:13:00,0,,0
2456897,03/03/2022 05:15:00,0,,0
2456898,03/03/2022 05:16:00,0,,0
2456899,03/03/2022 05:17:00,0,,0
2456900,03/03/2022 05:18:00,0,,0
2456901,03/03/2022 05:19:00,0,,0
2456902,03/03/2022 05:20:00,0,,0
2456903,03/03/2022 05:22:00,0,,0
2456904,03/03/2022 05:23:00,0,,0
2456905,03/03/2022 05:24:00,0,,0
2456906,03/03/2022 05:25:00,0,,0
2456907,03/03/2022 05:26:00,0,,0
2456908,03/03/2022 05:27:00,0,,0
2456909,03/03/2022 05:29:00,0,,0
2456910,03/03/2022 05:30:00,0,,0
2456911,03/03/2022 05:31:00,0,,0
2456912,03/03/2022 05:32:00,0,,0
2456913,03/03/2022 05:33:00,0,,0
2456914,03/03/2022 05:34:00,0,,0
2456915,03/03/2022 05:36:00,0,,0
2456916,03/03/2022 05:37:00,0,,0
2456917,03/03/2022 05:38:00,0,,0
2456918,03/03/2022 05:39:00,0,,0
2456919,03/03/2022 05:40:00,0,,0
2456920,03/03/2022 05:41:00,0,,0
2456921,03/03/2022 05:43:00,0,,0
2456922,03/03/2022 05:44:00,0,,0
2456923,03/03/2022 05:45:00,0,,0
2456924,03/03/2022 05:46:00,0,,0
2456925,03/03/2022 05:47:00,0,,0
2456926,03/03/2022 05:48:00,0,,0
2456927,03/03/2022 05:50:00,0,,0
2456928,03/03/2022 05:51:00,0,,0
2456929,03/03/2022 05:52:00,0,,0
2456930,03/03/2022 05:53:00,0,,0
2456931,03/03/2022 05:54:00,0,,0
2456932,03/03/2022 05:55:00,0,,0
2456933,03/03/2022 05:57:00,0,,0
2456934,03/03/2022 05:58:00,0,,0
2456935,03/03/2022 05:59:00,0,,0
2456936,03/03/2022 06:00:00,0,,0
2456937,03/03/2022 06:01:00,0,,0
2456938,03/03/2022 06:02:00,0,,0
2456939,03/03/2022 06:04:00,0,,0
2456940,03/03/2022 06:05:00,0,,0
2456941,03/03/2022 06:06:00,0,,0.0004
2456942,03/03/2022 06:07:00,0,,0.0004
2456943,03/03/2022 06:08:00,0,,0.0008
2456944,03/03/2022 06:09:00,0,,0.0008
2456945,03/03/2022 06:11:00,0,,0.002
2456946,03/03/2022 06:12:00,0,,0.0028
2456947,03/03/2022 06:13:00,0,,0.0036
2456948,03/03/2022 06:14:00,0,,0.0048
2456949,03/03/2022 06:15:00,0,,0.0052
2456950,03/03/2022 06:16:00,0,,0.006
2456951,03/03/2022 06:18:00,0,,0.0084
2456952,03/03/2022 06:19:00,0,,0.0096
2456953,03/03/2022 06:20:00,0,,0.0112
2456954,03/03/2022 06:21:00,0,,0.0128
2456955,03/03/2022 06:22:00,0,,0.0148
2456956,03/03/2022 06:23:00,0,,0.0176
2456957,03/03/2022 06:25:00,0,,0.0248
2456958,03/03/2022 06:26:00,0,,0.0276
2456959,03/03/2022 06:27:00,0,,0.0316
2456960,03/03/2022 06:28:00,0,,0.036
2456961,03/03/2022 06:29:00,0,,0.0432
2456962,03/03/2022 06:30:00,0,,0.05
2456963,03/03/2022 06:32:00,0,,0.0596
2456964,03/03/2022 06:33:00,0,,0.0624
2456965,03/03/2022 06:34:00,0,,0.0648
2456966,03/03/2022 06:35:00,0,,0.0668
2456967,03/03/2022 06:36:00,0,,0.0696
2456968,03/03/2022 06:37:00,0,,0.0732
2456969,03/03/2022 06:39:00,0,,0.0784
2456970,03/03/2022 06:40:00,0,,0.0824
2456971,03/03/2022 06:41:00,0,,0.0888
2456972,03/03/2022 06:42:00,0,,0.096
2456973,03/03/2022 06:43:00,0,,0.1036
2456974,03/03/2022 06:44:00,0,,0.1092
2456975,03/03/2022 06:46:00,0,,0.1196
2456976,03/03/2022 06:47:00,0,,0.1264
2456977,03/03/2022 06:48:00,0,,0.1368
2456978,03/03/2022 06:49:00,0,,0.1484
2456979,03/03/2022 06:50:00,0,,0.158
2456980,03/03/2022 06:51:00,0,,0.1664
2456981,03/03/2022 06:53:00,0,,0.1768
2456982,03/03/2022 06:54:00,0,,0.182